N12KH -KBHM

Flight info

Callsign N12KH
Flight time N/A
Altitude VFR
Route PATTERN
Aircraft ULAC/L-DOV/C

Departure

Time N/A
Airport -

Arrival

Time 2026-04-20 00:26
Airport Birmingham-Shuttlesworth International Airport (KBHM)
Time Latitude Longitude Altitude Speed Heading
2026-04-20 00:23 33.37558 -86.86214 2760 ft 38 kts 14°
2026-04-20 00:24 33.37805 -86.86119 2831 ft 34 kts 25°
2026-04-20 00:24 33.38019 -86.85932 2867 ft 40 kts 42°
2026-04-20 00:24 33.38168 -86.85627 2886 ft 43 kts 33°
2026-04-20 00:24 33.38333 -86.85352 2971 ft 39 kts 41°
2026-04-20 00:25 33.38488 -86.85092 3041 ft 38 kts 36°
2026-04-20 00:25 33.38642 -86.84856 3131 ft 38 kts 42°
2026-04-20 00:25 33.38788 -86.84562 2846 ft 81 kts 41°
2026-04-20 00:25 33.39052 -86.84060 1602 ft 76 kts 48°
2026-04-20 00:26 33.39301 -86.83594 1388 ft 59 kts 46°
2026-04-20 00:26 33.39560 -86.83226 1308 ft 52 kts 36°
2026-04-20 00:26 33.39796 -86.82921 1365 ft 49 kts 41°
2026-04-20 00:26 33.40009 -86.82607 1448 ft 46 kts 32°
2026-04-20 00:27 33.40277 -86.82408 1476 ft 45 kts 20°
2026-04-20 00:27 33.40533 -86.82203 1597 ft 42 kts 23°
2026-04-20 00:27 33.40781 -86.82069 1700 ft 39 kts 16°
2026-04-20 00:27 33.41036 -86.81973 1762 ft 38 kts
2026-04-20 00:28 33.41274 -86.81874 1862 ft 34 kts 12°
2026-04-20 00:28 33.41507 -86.81791 1999 ft 33 kts 15°
2026-04-20 00:28 33.41724 -86.81727 2125 ft 34 kts 11°
2026-04-20 00:28 33.41936 -86.81653 2233 ft 33 kts 11°
2026-04-20 00:29 33.42158 -86.81585 2326 ft 34 kts 12°
2026-04-20 00:29 33.42389 -86.81530 2416 ft 36 kts 11°
2026-04-20 00:29 33.42654 -86.81463 2440 ft 40 kts 11°
2026-04-20 00:29 33.42927 -86.81395 2479 ft 39 kts
2026-04-20 00:30 33.43189 -86.81352 2539 ft 38 kts 13°
2026-04-20 00:30 33.43382 -86.81375 2283 ft 30 kts
2026-04-20 00:30 33.43611 -86.81202 2071 ft 42 kts 33°
2026-04-20 00:30 33.43807 -86.80994 2196 ft 34 kts 17°
2026-04-20 00:31 33.44018 -86.80891 2315 ft 33 kts 20°
2026-04-20 00:31 33.44215 -86.80781 2452 ft 31 kts 18°
2026-04-20 00:31 33.44427 -86.80688 2571 ft 33 kts 11°
2026-04-20 00:31 33.44659 -86.80627 2661 ft 33 kts 12°
2026-04-20 00:32 33.44879 -86.80531 2769 ft 34 kts 14°
2026-04-20 00:32 33.45127 -86.80468 2836 ft 35 kts
2026-04-20 00:32 33.45388 -86.80390 2854 ft 39 kts 23°
2026-04-20 00:32 33.45602 -86.80228 1978 ft 83 kts 20°
2026-04-20 00:33 33.45974 -86.79896 1593 ft 58 kts 32°
2026-04-20 00:33 33.46274 -86.79614 1522 ft 51 kts 36°
2026-04-20 00:33 33.46521 -86.79340 1556 ft 46 kts 35°
2026-04-20 00:33 33.46732 -86.79061 1632 ft 44 kts 38°
2026-04-20 00:34 33.46931 -86.78749 1673 ft 49 kts 45°
2026-04-20 00:34 33.47145 -86.78482 1741 ft 43 kts 18°
2026-04-20 00:34 33.47413 -86.78413 1815 ft 40 kts
2026-04-20 00:34 33.47697 -86.78371 1858 ft 40 kts 11°
2026-04-20 00:35 33.47977 -86.78271 1882 ft 41 kts 13°
2026-04-20 00:35 33.48262 -86.78213 1921 ft 40 kts 359°
2026-04-20 00:35 33.48550 -86.78275 1955 ft 43 kts 353°
2026-04-20 00:35 33.48846 -86.78287 1972 ft 43 kts 359°
2026-04-20 00:36 33.49149 -86.78281 1980 ft 42 kts
2026-04-20 00:36 33.49435 -86.78341 2016 ft 43 kts 348°
2026-04-20 00:36 33.49649 -86.78179 2053 ft 53 kts 76°
2026-04-20 00:36 33.49257 -86.78032 2089 ft 74 kts 228°
2026-04-20 00:37 33.49203 -86.78474 2144 ft 46 kts 315°
2026-04-20 00:37 33.49433 -86.78686 2169 ft 42 kts 349°
2026-04-20 00:37 33.49717 -86.78821 2181 ft 44 kts 356°
2026-04-20 00:37 33.50019 -86.78816 2220 ft 45 kts
2026-04-20 00:38 33.50328 -86.78812 2238 ft 43 kts 360°
2026-04-20 00:38 33.50631 -86.78855 2234 ft 45 kts 359°
2026-04-20 00:38 33.50945 -86.78878 2230 ft 44 kts
2026-04-20 00:38 33.51253 -86.78896 2222 ft 46 kts
2026-04-20 00:39 33.51578 -86.78919 2167 ft 46 kts
2026-04-20 00:39 33.51894 -86.78924 2159 ft 45 kts
2026-04-20 00:39 33.52214 -86.78927 2142 ft 45 kts
2026-04-20 00:39 33.52537 -86.78913 2113 ft 47 kts
2026-04-20 00:40 33.52862 -86.78889 2090 ft 44 kts
2026-04-20 00:40 33.53154 -86.78862 2109 ft 38 kts
2026-04-20 00:40 33.53442 -86.78908 2045 ft 45 kts 353°
2026-04-20 00:40 33.53776 -86.78934 1875 ft 48 kts
2026-04-20 00:41 33.54095 -86.78932 1685 ft 40 kts 21°
2026-04-20 00:41 33.54301 -86.78734 1509 ft 37 kts 30°
2026-04-20 00:41 33.54510 -86.78548 1342 ft 39 kts 26°
2026-04-20 00:41 33.54727 -86.78342 1176 ft 41 kts 39°
2026-04-20 00:42 33.54914 -86.78080 1017 ft 43 kts 41°
2026-04-20 00:42 33.55088 -86.77806 874 ft 40 kts 45°
2026-04-20 00:42 33.55259 -86.77531 733 ft 41 kts 52°
2026-04-20 00:42 33.55411 -86.77269 637 ft 33 kts 49°
2026-04-20 00:43 33.55530 -86.77158 604 ft 13 kts 324°
2026-04-20 00:43 33.55579 -86.77198 605 ft 4 kts 328°
2026-04-20 00:43 33.55620 -86.77209 606 ft 10 kts
2026-04-20 00:43 33.55685 -86.77213 608 ft 6 kts 327°
2026-04-20 00:44 33.55700 -86.77246 608 ft 5 kts 239°